"Period start","avg(HW err(1)/warn(2) (#))","avg(Visibility (m))","avg(Weather code (#))","avg(Precip intensity (mm/h))","min(HW err(1)/warn(2) (#))","max(HW err(1)/warn(2) (#))","std(HW err(1)/warn(2) (#))","med(HW err(1)/warn(2) (#))","min(Visibility (m))","max(Visibility (m))","std(Visibility (m))","med(Visibility (m))","min(Weather code (#))","max(Weather code (#))","std(Weather code (#))","med(Weather code (#))","min(Precip intensity (mm/h))","max(Precip intensity (mm/h))","std(Precip intensity (mm/h))","med(Precip intensity (mm/h))"
2016-07-31 00:00:00,1,41422,0,0.00,0,2,1,2,32582,48049,5277,41361,0,0,0,0,0.00,0.00,0.00,0.00
2016-07-31 00:10:00,2,39551,0,0.00,2,2,0,2,24715,50000,7703,41852,0,0,0,0,0.00,0.00,0.00,0.00
2016-07-31 00:20:00,1,39845,0,0.00,0,2,1,2,28828,50000,7222,40949,0,0,0,0,0.00,0.00,0.00,0.00
2016-07-31 00:30:00,2,41804,0,0.00,0,2,1,2,28400,50000,6773,42733,0,0,0,0,0.00,0.00,0.00,0.00
2016-07-31 00:40:00,2,35890,0,0.00,2,2,0,2,24058,50000,9081,32278,0,0,0,0,0.00,0.00,0.00,0.00
2016-07-31 00:50:00,1,41741,0,0.00,0,2,1,0,24338,50000,8410,42868,0,0,0,0,0.00,0.00,0.00,0.00
2016-07-31 01:00:00,0,39368,0,0.00,0,0,0,0,30507,46355,5367,40510,0,0,0,0,0.00,0.00,0.00,0.00
2016-07-31 01:10:00,0,45558,0,0.00,0,0,0,0,38609,50000,3767,45110,0,0,0,0,0.00,0.00,0.00,0.00
2016-07-31 01:20:00,0,34944,0,0.00,0,2,1,0,25437,50000,6750,34436,0,0,0,0,0.00,0.00,0.00,0.00
2016-07-31 01:30:00,0,37033,0,0.00,0,0,0,0,22374,50000,9426,40346,0,0,0,0,0.00,0.00,0.00,0.00
2016-07-31 01:40:00,0,43472,0,0.00,0,0,0,0,37112,50000,4143,42772,0,0,0,0,0.00,0.00,0.00,0.00
2016-07-31 01:50:00,0,45967,0,0.00,0,0,0,0,31721,50000,5613,49014,0,0,0,0,0.00,0.00,0.00,0.00
2016-07-31 02:00:00,0,44086,0,0.00,0,0,0,0,32464,50000,7378,50000,0,0,0,0,0.00,0.00,0.00,0.00
2016-07-31 02:10:00,0,47337,0,0.00,0,0,0,0,35284,50000,4820,49886,0,0,0,0,0.00,0.00,0.00,0.00
2016-07-31 02:20:00,0,45865,0,0.00,0,0,0,0,26488,50000,6703,47796,0,0,0,0,0.00,0.00,0.00,0.00
2016-07-31 02:30:00,0,42917,0,0.00,0,0,0,0,23089,50000,9195,46922,0,0,0,0,0.00,0.00,0.00,0.00
2016-07-31 02:40:00,0,43873,0,0.00,0,0,0,0,32850,50000,6743,47014,0,0,0,0,0.00,0.00,0.00,0.00
2016-07-31 02:50:00,0,48345,0,0.00,0,0,0,0,40736,50000,2751,49932,0,0,0,0,0.00,0.00,0.00,0.00
2016-07-31 03:00:00,0,37353,0,0.00,0,0,0,0,27111,49923,7733,37785,0,0,0,0,0.00,0.00,0.00,0.00
2016-07-31 03:10:00,0,47940,0,0.00,0,0,0,0,39393,50000,3364,49842,0,0,0,0,0.00,0.00,0.00,0.00
2016-07-31 03:20:00,0,46501,0,0.00,0,0,0,0,38378,50000,4470,48766,0,0,0,0,0.00,0.00,0.00,0.00
2016-07-31 03:30:00,0,44833,0,0.00,0,0,0,0,28418,50000,7462,48911,0,0,0,0,0.00,0.00,0.00,0.00
2016-07-31 03:40:00,0,46502,0,0.00,0,0,0,0,34628,50000,5237,49262,0,0,0,0,0.00,0.00,0.00,0.00
2016-07-31 03:50:00,0,41532,0,0.00,0,0,0,0,31437,50000,6471,42136,0,0,0,0,0.00,0.00,0.00,0.00
2016-07-31 04:00:00,0,47672,0,0.00,0,0,0,0,40262,50000,3418,49705,0,0,0,0,0.00,0.00,0.00,0.00
2016-07-31 04:10:00,0,45903,0,0.00,0,0,0,0,28736,50000,7664,50000,0,0,0,0,0.00,0.00,0.00,0.00
2016-07-31 04:20:00,0,47081,0,0.00,0,0,0,0,42819,50000,2590,47317,0,0,0,0,0.00,0.00,0.00,0.00
2016-07-31 04:30:00,0,45704,0,0.00,0,0,0,0,35823,50000,4495,46944,0,0,0,0,0.00,0.00,0.00,0.00
2016-07-31 04:40:00,0,47957,0,0.00,0,0,0,0,37703,50000,3918,50000,0,0,0,0,0.00,0.00,0.00,0.00
2016-07-31 04:50:00,0,45939,0,0.00,0,0,0,0,42310,50000,2638,45326,0,0,0,0,0.00,0.00,0.00,0.00
2016-07-31 05:00:00,0,46584,0,0.00,0,0,0,0,38031,50000,3902,48026,0,0,0,0,0.00,0.00,0.00,0.00
2016-07-31 05:10:00,0,46271,0,0.00,0,0,0,0,40693,50000,3758,47609,0,0,0,0,0.00,0.00,0.00,0.00
2016-07-31 05:20:00,0,44712,0,0.00,0,0,0,0,37786,50000,4554,45652,0,0,0,0,0.00,0.00,0.00,0.00
2016-07-31 05:30:00,0,48537,0,0.00,0,0,0,0,43824,50000,2206,49934,0,0,0,0,0.00,0.00,0.00,0.00
2016-07-31 05:40:00,0,48036,0,0.00,0,0,0,0,43622,50000,2320,49382,0,0,0,0,0.00,0.00,0.00,0.00
2016-07-31 05:50:00,0,47589,0,0.00,0,0,0,0,44081,50000,2212,47216,0,0,0,0,0.00,0.00,0.00,0.00
2016-07-31 06:00:00,0,48829,0,0.00,0,0,0,0,44959,50000,1796,50000,0,0,0,0,0.00,0.00,0.00,0.00
2016-07-31 06:10:00,0,49671,0,0.00,0,0,0,0,46712,50000,986,50000,0,0,0,0,0.00,0.00,0.00,0.00
2016-07-31 06:20:00,0,49840,0,0.00,0,0,0,0,48403,50000,479,50000,0,0,0,0,0.00,0.00,0.00,0.00
2016-07-31 06:30:00,0,49738,0,0.00,0,0,0,0,47384,50000,785,50000,0,0,0,0,0.00,0.00,0.00,0.00
2016-07-31 06:40:00,0,49545,0,0.00,0,0,0,0,47534,50000,914,50000,0,0,0,0,0.00,0.00,0.00,0.00
2016-07-31 06:50:00,0,48647,0,0.00,0,0,0,0,43964,50000,2234,50000,0,0,0,0,0.00,0.00,0.00,0.00
2016-07-31 07:00:00,0,49820,0,0.00,0,0,0,0,48529,50000,442,50000,0,0,0,0,0.00,0.00,0.00,0.00
2016-07-31 07:10:00,0,49598,0,0.00,0,0,0,0,48214,50000,642,50000,0,0,0,0,0.00,0.00,0.00,0.00
2016-07-31 07:20:00,0,49833,0,0.00,0,0,0,0,48331,50000,501,50000,0,0,0,0,0.00,0.00,0.00,0.00
2016-07-31 07:30:00,0,49848,0,0.00,0,0,0,0,48475,50000,458,50000,0,0,0,0,0.00,0.00,0.00,0.00
2016-07-31 07:40:00,0,39018,0,0.00,0,0,0,0,14034,50000,14144,47342,0,0,0,0,0.00,0.00,0.00,0.00
2016-07-31 07:50:00,0,31533,0,0.00,0,0,0,0,19399,47476,8290,31344,0,0,0,0,0.00,0.00,0.00,0.00
2016-07-31 08:00:00,0,43701,0,0.00,0,0,0,0,22777,50000,9517,49578,0,0,0,0,0.00,0.00,0.00,0.00
2016-07-31 08:10:00,0,50000,0,0.00,0,0,0,0,50000,50000,0,50000,0,0,0,0,0.00,0.00,0.00,0.00
2016-07-31 08:20:00,0,47515,0,0.00,0,0,0,0,39259,50000,4074,49888,0,0,0,0,0.00,0.00,0.00,0.00
2016-07-31 08:30:00,0,47219,0,0.00,0,0,0,0,41591,50000,3201,49003,0,0,0,0,0.00,0.00,0.00,0.00
2016-07-31 08:40:00,0,48539,0,0.00,0,0,0,0,43532,50000,2282,49830,0,0,0,0,0.00,0.00,0.00,0.00
2016-07-31 08:50:00,0,47940,0,0.00,0,0,0,0,39063,50000,3357,49867,0,0,0,0,0.00,0.00,0.00,0.00
2016-07-31 09:00:00,0,49650,0,0.00,0,0,0,0,47385,50000,780,50000,0,0,0,0,0.00,0.00,0.00,0.00
2016-07-31 09:10:00,0,49930,0,0.00,0,0,0,0,49642,50000,139,50000,0,0,0,0,0.00,0.00,0.00,0.00
2016-07-31 09:20:00,0,47662,0,0.00,0,0,0,0,40765,50000,3129,50000,0,0,0,0,0.00,0.00,0.00,0.00
2016-07-31 09:30:00,0,49360,0,0.00,0,0,0,0,45075,50000,1462,50000,0,0,0,0,0.00,0.00,0.00,0.00
2016-07-31 09:40:00,0,48366,0,0.00,0,0,0,0,41797,50000,2826,50000,0,0,0,0,0.00,0.00,0.00,0.00
2016-07-31 09:50:00,0,49604,0,0.00,0,0,0,0,46037,50000,1189,50000,0,0,0,0,0.00,0.00,0.00,0.00
2016-07-31 10:00:00,0,50000,0,0.00,0,0,0,0,50000,50000,0,50000,0,0,0,0,0.00,0.00,0.00,0.00
2016-07-31 10:10:00,0,49373,0,0.00,0,0,0,0,45811,50000,1300,50000,0,0,0,0,0.00,0.00,0.00,0.00
2016-07-31 10:20:00,0,47660,0,0.00,0,0,0,0,39228,50000,3763,50000,0,0,0,0,0.00,0.00,0.00,0.00
2016-07-31 10:30:00,0,50000,0,0.00,0,0,0,0,50000,50000,0,50000,0,0,0,0,0.00,0.00,0.00,0.00
2016-07-31 10:40:00,0,49821,0,0.00,0,0,0,0,48207,50000,538,50000,0,0,0,0,0.00,0.00,0.00,0.00
2016-07-31 10:50:00,0,49881,0,0.00,0,0,0,0,49440,50000,205,50000,0,0,0,0,0.00,0.00,0.00,0.00
2016-07-31 11:00:00,0,49632,0,0.00,0,0,0,0,46509,50000,1043,50000,0,0,0,0,0.00,0.00,0.00,0.00
2016-07-31 11:10:00,0,50000,0,0.00,0,0,0,0,50000,50000,0,50000,0,0,0,0,0.00,0.00,0.00,0.00
2016-07-31 11:20:00,0,50000,0,0.00,0,0,0,0,50000,50000,0,50000,0,0,0,0,0.00,0.00,0.00,0.00
2016-07-31 11:30:00,0,49947,0,0.00,0,0,0,0,49466,50000,160,50000,0,0,0,0,0.00,0.00,0.00,0.00
2016-07-31 11:40:00,0,44024,0,0.00,0,0,0,0,22963,50000,9880,50000,0,0,0,0,0.00,0.00,0.00,0.00
2016-07-31 11:50:00,0,50000,0,0.00,0,0,0,0,50000,50000,0,50000,0,0,0,0,0.00,0.00,0.00,0.00
2016-07-31 12:00:00,0,50000,0,0.00,0,0,0,0,50000,50000,0,50000,0,0,0,0,0.00,0.00,0.00,0.00
2016-07-31 12:10:00,0,50000,0,0.00,0,0,0,0,50000,50000,0,50000,0,0,0,0,0.00,0.00,0.00,0.00
2016-07-31 12:20:00,0,49958,0,0.00,0,0,0,0,49576,50000,127,50000,0,0,0,0,0.00,0.00,0.00,0.00
2016-07-31 12:30:00,0,49951,0,0.00,0,0,0,0,49612,50000,117,50000,0,0,0,0,0.00,0.00,0.00,0.00
2016-07-31 12:40:00,0,50000,0,0.00,0,0,0,0,50000,50000,0,50000,0,0,0,0,0.00,0.00,0.00,0.00
2016-07-31 12:50:00,0,50000,0,0.00,0,0,0,0,50000,50000,0,50000,0,0,0,0,0.00,0.00,0.00,0.00
2016-07-31 13:00:00,0,49631,0,0.00,0,0,0,0,46313,50000,1106,50000,0,0,0,0,0.00,0.00,0.00,0.00
2016-07-31 13:10:00,0,49718,0,0.00,0,0,0,0,47445,50000,762,50000,0,0,0,0,0.00,0.00,0.00,0.00
2016-07-31 13:20:00,0,50000,0,0.00,0,0,0,0,50000,50000,0,50000,0,0,0,0,0.00,0.00,0.00,0.00
2016-07-31 13:30:00,0,50000,0,0.00,0,0,0,0,50000,50000,0,50000,0,0,0,0,0.00,0.00,0.00,0.00
2016-07-31 13:40:00,0,49218,0,0.00,0,0,0,0,46581,50000,1240,50000,0,0,0,0,0.00,0.00,0.00,0.00
2016-07-31 13:50:00,0,49904,0,0.00,0,0,0,0,49035,50000,290,50000,0,0,0,0,0.00,0.00,0.00,0.00
2016-07-31 14:00:00,0,49269,0,0.00,0,0,0,0,46171,50000,1464,50000,0,0,0,0,0.00,0.00,0.00,0.00
2016-07-31 14:10:00,0,49832,0,0.00,0,0,0,0,48397,50000,479,50000,0,0,0,0,0.00,0.00,0.00,0.00
2016-07-31 14:20:00,0,50000,0,0.00,0,0,0,0,50000,50000,0,50000,0,0,0,0,0.00,0.00,0.00,0.00
2016-07-31 14:30:00,0,50000,0,0.00,0,0,0,0,50000,50000,0,50000,0,0,0,0,0.00,0.00,0.00,0.00
2016-07-31 14:40:00,0,50000,0,0.00,0,0,0,0,50000,50000,0,50000,0,0,0,0,0.00,0.00,0.00,0.00
2016-07-31 14:50:00,0,50000,0,0.00,0,0,0,0,50000,50000,0,50000,0,0,0,0,0.00,0.00,0.00,0.00
2016-07-31 15:00:00,0,49945,0,0.00,0,0,0,0,49452,50000,164,50000,0,0,0,0,0.00,0.00,0.00,0.00
2016-07-31 15:10:00,0,50000,0,0.00,0,0,0,0,50000,50000,0,50000,0,0,0,0,0.00,0.00,0.00,0.00
2016-07-31 15:20:00,0,49787,0,0.00,0,0,0,0,47872,50000,638,50000,0,0,0,0,0.00,0.00,0.00,0.00
2016-07-31 15:30:00,0,49806,0,0.00,0,0,0,0,48859,50000,396,50000,0,0,0,0,0.00,0.00,0.00,0.00
2016-07-31 15:40:00,0,49320,0,0.00,0,0,0,0,45307,50000,1383,50000,0,0,0,0,0.00,0.00,0.00,0.00
2016-07-31 15:50:00,0,50000,0,0.00,0,0,0,0,50000,50000,0,50000,0,0,0,0,0.00,0.00,0.00,0.00
2016-07-31 16:00:00,0,49547,0,0.00,0,0,0,0,46583,50000,1042,50000,0,0,0,0,0.00,0.00,0.00,0.00
2016-07-31 16:10:00,0,49411,0,0.00,0,0,0,0,46939,50000,1038,50000,0,0,0,0,0.00,0.00,0.00,0.00
2016-07-31 16:20:00,0,49885,0,0.00,0,0,0,0,49208,50000,250,50000,0,0,0,0,0.00,0.00,0.00,0.00
2016-07-31 16:30:00,0,47444,0,0.00,0,0,0,0,33492,50000,5350,50000,0,0,0,0,0.00,0.00,0.00,0.00
2016-07-31 16:40:00,0,49484,0,0.00,0,0,0,0,47371,50000,963,50000,0,0,0,0,0.00,0.00,0.00,0.00
2016-07-31 16:50:00,0,49934,0,0.00,0,0,0,0,49484,50000,156,50000,0,0,0,0,0.00,0.00,0.00,0.00
2016-07-31 17:00:00,0,49714,0,0.00,0,0,0,0,47138,50000,859,50000,0,0,0,0,0.00,0.00,0.00,0.00
2016-07-31 17:10:00,0,49546,0,0.00,0,0,0,0,45916,50000,1218,50000,0,0,0,0,0.00,0.00,0.00,0.00
2016-07-31 17:20:00,0,46437,0,0.00,0,0,0,0,38801,50000,4338,48212,0,0,0,0,0.00,0.00,0.00,0.00
2016-07-31 17:30:00,0,44603,0,0.00,0,0,0,0,25729,50000,8594,49813,0,0,0,0,0.00,0.00,0.00,0.00
2016-07-31 17:40:00,0,49873,0,0.00,0,0,0,0,48734,50000,380,50000,0,0,0,0,0.00,0.00,0.00,0.00
2016-07-31 17:50:00,0,49912,0,0.00,0,0,0,0,49115,50000,266,50000,0,0,0,0,0.00,0.00,0.00,0.00
2016-07-31 18:00:00,0,49768,0,0.00,0,0,0,0,48074,50000,577,50000,0,0,0,0,0.00,0.00,0.00,0.00
2016-07-31 18:10:00,0,49996,0,0.00,0,0,0,0,49955,50000,14,50000,0,0,0,0,0.00,0.00,0.00,0.00
2016-07-31 18:20:00,0,47686,0,0.00,0,0,0,0,40623,50000,2802,48360,0,0,0,0,0.00,0.00,0.00,0.00
2016-07-31 18:30:00,0,49032,0,0.00,0,0,0,0,43732,50000,1985,50000,0,0,0,0,0.00,0.00,0.00,0.00
2016-07-31 18:40:00,0,49124,0,0.00,0,0,0,0,46148,50000,1318,50000,0,0,0,0,0.00,0.00,0.00,0.00
2016-07-31 18:50:00,0,49108,0,0.00,0,0,0,0,46704,50000,1180,49845,0,0,0,0,0.00,0.00,0.00,0.00
2016-07-31 19:00:00,0,49355,0,0.00,0,0,0,0,47396,50000,866,49696,0,0,0,0,0.00,0.00,0.00,0.00
2016-07-31 19:10:00,0,49979,0,0.00,0,0,0,0,49791,50000,63,50000,0,0,0,0,0.00,0.00,0.00,0.00
2016-07-31 19:20:00,0,49803,0,0.00,0,0,0,0,48237,50000,526,50000,0,0,0,0,0.00,0.00,0.00,0.00
2016-07-31 19:30:00,0,49976,0,0.00,0,0,0,0,49755,50000,74,50000,0,0,0,0,0.00,0.00,0.00,0.00
2016-07-31 19:40:00,0,49574,0,0.00,0,0,0,0,45736,50000,1279,50000,0,0,0,0,0.00,0.00,0.00,0.00
2016-07-31 19:50:00,0,50000,0,0.00,0,0,0,0,50000,50000,0,50000,0,0,0,0,0.00,0.00,0.00,0.00
2016-07-31 20:00:00,0,49769,0,0.00,0,0,0,0,48902,50000,374,50000,0,0,0,0,0.00,0.00,0.00,0.00
2016-07-31 20:10:00,0,49532,0,0.00,0,0,0,0,47475,50000,940,50000,0,0,0,0,0.00,0.00,0.00,0.00
2016-07-31 20:20:00,0,49724,0,0.00,0,0,0,0,48961,50000,424,50000,0,0,0,0,0.00,0.00,0.00,0.00
2016-07-31 20:30:00,0,49748,0,0.00,0,0,0,0,48789,50000,413,50000,0,0,0,0,0.00,0.00,0.00,0.00
2016-07-31 20:40:00,0,49666,0,0.00,0,0,0,0,48124,50000,675,50000,0,0,0,0,0.00,0.00,0.00,0.00
2016-07-31 20:50:00,0,49624,0,0.00,0,0,0,0,47177,50000,862,50000,0,0,0,0,0.00,0.00,0.00,0.00
2016-07-31 21:00:00,0,49205,0,0.00,0,0,0,0,45136,50000,1464,50000,0,0,0,0,0.00,0.00,0.00,0.00
2016-07-31 21:10:00,0,46887,0,0.00,0,0,0,0,40739,50000,2611,46892,0,0,0,0,0.00,0.00,0.00,0.00
2016-07-31 21:20:00,0,48718,0,0.00,0,0,0,0,45363,50000,1626,49812,0,0,0,0,0.00,0.00,0.00,0.00
2016-07-31 21:30:00,0,48050,0,0.00,0,0,0,0,43928,50000,1860,48480,0,0,0,0,0.00,0.00,0.00,0.00
2016-07-31 21:40:00,0,48526,0,0.00,0,0,0,0,42929,50000,2157,49728,0,0,0,0,0.00,0.00,0.00,0.00
2016-07-31 21:50:00,0,48430,0,0.00,0,0,0,0,43480,50000,2021,49318,0,0,0,0,0.00,0.00,0.00,0.00
2016-07-31 22:00:00,0,48520,0,0.00,0,0,0,0,42120,50000,2407,49696,0,0,0,0,0.00,0.00,0.00,0.00
2016-07-31 22:10:00,0,47773,0,0.00,0,0,0,0,44401,50000,2060,47459,0,0,0,0,0.00,0.00,0.00,0.00
2016-07-31 22:20:00,0,49343,0,0.00,0,0,0,0,46601,50000,1207,50000,0,0,0,0,0.00,0.00,0.00,0.00
2016-07-31 22:30:00,0,48262,0,0.00,0,0,0,0,42555,50000,2295,49378,0,0,0,0,0.00,0.00,0.00,0.00
2016-07-31 22:40:00,0,46621,0,0.00,0,0,0,0,39007,50000,4168,49198,0,0,0,0,0.00,0.00,0.00,0.00
2016-07-31 22:50:00,1,44965,0,0.00,0,2,1,2,39157,50000,3211,44536,0,0,0,0,0.00,0.00,0.00,0.00
2016-07-31 23:00:00,2,40169,0,0.00,2,2,0,2,28394,50000,6619,41158,0,0,0,0,0.00,0.00,0.00,0.00
2016-07-31 23:10:00,2,46483,0,0.00,2,2,0,2,31179,50000,6094,50000,0,0,0,0,0.00,0.00,0.00,0.00
2016-07-31 23:20:00,1,45483,0,0.00,0,2,1,1,36840,50000,4739,47176,0,0,0,0,0.00,0.00,0.00,0.00
2016-07-31 23:30:00,0,45859,0,0.00,0,0,0,0,39078,50000,3170,46567,0,0,0,0,0.00,0.00,0.00,0.00
2016-07-31 23:40:00,0,46819,0,0.00,0,0,0,0,38419,50000,3353,47015,0,0,0,0,0.00,0.00,0.00,0.00
2016-07-31 23:50:00,0,49273,0,0.00,0,0,0,0,45105,50000,1448,50000,0,0,0,0,0.00,0.00,0.00,0.00
